Theta_e
308 315 319 322 323 324 326 326 327 327 327 325 325 324 324 323 323 321 320 320 319 319 320 320 319 320 320 320 319 319 317 316 312 311 307 303 302 301 298 298 296 295 292
303 305 308 312 317 320 323 324 326 326 327 326 325 324 324 324 323 322 321 321 321 320 320 320 319 319 319 320 318 317 317 316 314 310 305 300 300 299 297 296 293 293 290
301 302 303 304 306 310 315 320 323 324 325 325 325 324 323 324 323 323 323 323 322 322 321 320 319 319 318 318 317 316 316 314 313 308 304 298 295 294 291 289 290 289 290
299 299 299 301 302 304 307 311 315 319 321 323 324 324 324 324 324 323 323 322 322 322 322 320 319 318 317 316 315 314 313 311 309 307 295 294 293 287 288 289 287 286 286
297 297 299 300 301 301 303 305 308 311 315 319 321 322 323 323 323 323 322 322 322 321 320 319 318 313 305 312 314 313 310 308 296 295 289 288 288 286 288 287 287 286 286
294 294 296 297 297 298 299 300 303 306 309 312 315 318 319 320 313 307 315 321 320 319 317 317 316 298 300 301 302 303 307 304 297 294 290 290 289 288 287 287 286 285 286
292 293 293 294 294 295 295 296 297 300 303 306 309 314 316 319 308 304 302 320 318 317 317 313 304 301 298 302 298 298 298 300 301 301 293 293 290 290 288 285 285 286 285
288 289 290 290 291 292 293 293 295 297 298 301 305 309 312 315 306 303 300 316 319 316 314 308 305 298 297 296 293 292 292 294 295 296 298 294 296 292 291 289 287 285 284
286 287 288 289 289 290 291 292 294 293 295 297 299 302 306 310 304 300 302 311 314 306 305 304 304 298 294 294 292 289 288 287 292 294 294 295 294 293 290 287 285 286 282
285 285 286 287 288 288 290 291 292 292 292 293 295 298 299 304 304 298 302 310 304 300 293 294 291 296 292 294 292 289 287 286 287 287 289 291 292 290 290 290 287 286 277
282 282 283 284 285 286 287 289 290 290 291 291 292 295 297 299 302 297 299 308 303 298 295 291 290 293 293 294 294 290 290 287 288 287 286 285 286 286 285 284 285 285 280
278 279 279 282 283 285 286 287 288 289 289 289 291 292 295 296 294 297 297 300 304 297 296 294 291 292 293 293 291 292 291 289 286 285 285 284 283 283 283 283 282 282 282
275 276 278 278 279 283 284 284 286 288 288 289 290 291 293 295 291 293 294 296 296 296 296 293 291 292 293 292 292 291 287 286 285 284 283 283 284 284 282 282 282 282 282
271 271 274 276 279 280 282 284 285 286 288 288 289 290 292 294 291 292 291 293 290 289 289 289 290 291 292 291 288 289 287 286 285 285 284 283 283 282 282 283 281 281 281
270 272 273 276 277 279 282 284 285 287 289 288 289 291 291 291 293 292 292 290 290 289 287 287 288 288 287 287 287 287 286 285 285 284 283 282 282 282 281 282 281 281 279
268 271 272 272 272 275 277 280 286 287 288 291 291 291 292 293 294 292 292 293 292 290 288 287 287 287 286 286 286 284 285 284 284 284 283 283 282 282 281 281 281 280 277
265 267 268 269 270 271 274 276 279 285 289 290 291 291 291 292 293 293 292 292 292 290 289 288 288 287 287 286 285 284 283 284 284 284 283 283 283 282 281 280 280 277 275
264 265 267 268 269 271 273 276 280 283 284 286 290 290 291 291 292 292 292 291 288 289 290 288 287 287 286 285 285 284 284 283 283 284 283 283 283 282 281 280 278 276 274
264 265 267 268 270 271 273 276 280 283 285 286 288 290 289 291 291 291 292 289 287 286 289 288 288 286 286 285 285 284 283 282 283 283 283 283 282 281 280 279 277 274 272
264 265 267 268 269 271 273 277 281 284 285 286 287 288 288 287 287 287 289 288 288 288 289 288 287 287 286 285 284 284 283 282 282 282 282 282 282 281 279 276 275 273 272
264 265 267 268 269 272 274 278 282 285 285 286 287 288 289 287 287 287 287 288 288 288 288 288 287 286 286 285 284 283 283 282 282 282 282 281 281 278 277 276 274 273 270
263 264 264 265 267 269 271 274 280 284 285 285 287 287 289 286 287 286 286 287 288 288 289 288 287 287 286 286 285 284 283 282 282 282 281 280 278 276 275 273 271 269 268
263 263 263 263 265 266 268 270 273 276 283 285 285 285 285 285 285 285 285 285 287 287 287 287 287 286 286 286 286 285 283 283 283 282 279 277 275 273 273 271 269 267 266
261 261 261 262 263 264 265 266 268 270 272 274 282 285 284 285 285 285 285 285 285 285 285 285 286 286 285 285 285 285 285 284 282 280 277 275 274 272 271 269 268 267 265
260 260 260 260 261 261 262 263 265 266 267 268 270 272 273 284 285 285 285 286 285 285 285 285 285 285 285 284 284 283 281 279 277 276 276 274 272 270 269 268 266 265 263
259 259 259 259 259 260 260 261 262 263 264 265 266 267 269 270 271 274 278 283 283 283 283 283 283 283 282 280 278 276 275 275 273 274 273 271 269 267 267 265 264 263 262
Wind_Speed
4 6 7 9 10 11 13 15 17 16 15 15 16 15 16 17 17 17 18 17 17 16 15 16 19 15 11 10 10 9 10 9 10 5 4 4 5 4 4 3 2 3 2
8 7 7 8 9 11 12 15 15 16 16 16 17 16 16 17 17 18 19 17 19 18 18 17 19 12 15 13 10 12 10 10 9 10 5 4 4 3 4 4 1 3 1
8 8 11 11 12 12 12 14 14 14 15 15 16 18 18 18 18 19 20 20 20 20 18 18 18 17 15 12 12 10 9 7 8 4 4 2 2 2 2 2 3 1 1
8 7 7 9 10 11 12 13 14 14 14 15 17 18 19 18 20 19 19 20 20 19 19 18 18 18 18 15 12 12 9 8 8 6 3 3 2 1 2 3 2 1 1
11 11 12 11 12 12 12 12 13 13 14 15 16 17 18 18 15 19 18 19 20 19 17 17 18 17 20 17 11 12 11 9 4 5 3 3 3 3 4 3 3 2 2
12 11 11 12 14 14 13 13 13 13 14 15 17 17 18 14 20 20 20 18 19 19 18 17 16 12 14 18 19 17 17 13 10 6 4 5 5 4 4 4 4 3 3
12 13 14 13 15 14 13 13 13 14 14 14 16 17 19 19 20 20 23 19 18 18 19 15 10 8 11 11 11 14 12 14 10 11 7 8 6 8 7 5 4 4 3
15 14 12 12 15 15 15 14 14 13 13 14 15 15 18 18 19 21 22 22 19 19 18 16 16 13 11 12 9 7 7 7 7 7 9 8 6 10 10 7 7 7 4
17 17 14 13 17 17 18 18 16 13 14 14 14 16 16 19 19 20 18 18 21 15 13 14 14 14 18 20 13 10 7 5 5 8 8 11 12 15 12 9 7 8 3
15 18 18 16 17 18 18 20 17 14 15 13 17 16 17 19 20 20 21 15 16 12 10 9 14 14 22 23 13 12 11 8 8 7 7 9 11 12 17 7 10 10 5
20 21 20 18 18 19 20 17 17 17 16 16 16 16 17 17 19 21 25 18 14 11 11 9 8 19 24 24 18 13 12 12 12 8 7 6 6 6 4 2 5 9 4
22 23 22 20 16 16 19 20 17 17 17 19 16 16 14 15 17 20 26 31 20 13 13 8 9 23 24 23 16 16 22 18 9 8 8 7 8 6 5 4 6 6 5
23 23 21 23 21 19 17 20 17 16 15 16 14 14 15 11 9 19 23 26 18 12 8 12 20 25 22 20 22 22 22 11 11 10 10 8 7 6 8 7 7 9 6
24 24 21 23 22 20 16 15 15 15 15 15 15 15 14 12 10 10 10 11 11 3 10 10 14 15 16 12 13 16 12 12 12 10 10 8 8 8 7 7 8 8 7
22 21 21 18 19 19 16 14 15 20 18 15 16 14 15 16 15 14 15 12 12 13 12 9 9 10 11 10 11 12 10 10 11 10 10 10 10 10 8 8 8 9 4
21 18 16 18 18 17 17 19 23 32 35 34 35 26 18 27 21 19 23 25 25 29 11 11 12 13 14 14 14 13 11 13 12 11 11 11 12 12 10 9 8 7 8
22 21 17 18 17 17 16 17 19 17 29 30 30 32 36 33 23 21 25 24 25 27 13 14 15 16 15 14 14 13 13 12 14 12 12 12 12 11 14 10 10 9 6
21 27 19 16 16 16 16 17 16 17 17 17 16 21 29 32 27 22 25 22 14 21 15 15 13 14 15 15 15 14 12 13 13 13 13 13 13 13 12 11 10 10 9
19 17 18 17 16 19 18 19 17 18 17 17 13 15 18 28 24 23 29 16 17 17 15 14 15 14 14 15 14 13 14 13 14 14 14 14 14 14 13 11 10 12 10
17 25 23 17 16 16 16 17 17 15 16 15 13 13 7 10 11 13 16 17 15 15 15 15 15 14 15 14 14 13 13 13 14 14 14 13 13 13 12 13 11 12 9
15 16 22 17 16 16 17 16 17 14 14 13 13 12 15 12 12 12 13 15 15 13 14 13 13 14 14 15 15 14 15 15 15 15 14 14 13 13 12 11 11 10 9
14 15 16 16 16 16 17 17 17 14 13 12 11 10 20 12 10 10 12 14 14 12 12 13 14 15 16 17 17 18 18 18 17 16 15 14 13 12 12 11 11 10 10
14 16 17 15 15 20 17 16 16 16 15 11 10 8 7 9 9 8 10 10 10 10 10 12 12 12 12 14 15 16 17 18 18 18 17 16 15 14 13 13 13 12 11
15 16 16 15 14 15 15 16 16 18 16 15 14 7 7 8 9 11 9 7 7 8 9 10 12 16 15 14 13 13 14 14 14 16 21 17 15 16 13 13 12 14 11
14 14 15 15 14 15 16 16 15 16 14 13 13 13 14 9 7 7 7 7 8 9 11 11 11 15 19 21 18 18 16 19 15 17 12 14 18 20 15 12 13 11 11
13 14 13 13 13 14 14 15 15 15 15 14 13 13 13 11 10 10 5 3 5 5 6 6 9 14 16 14 16 20 23 22 19 20 15 13 14 12 12 13 17 11 13
Wind_Direction
301 273 265 262 260 250 247 244 243 240 235 233 231 225 220 219 218 215 219 222 222 227 224 225 229 218 212 210 208 209 214 213 235 221 192 172 162 160 155 131 99 87 75
328 327 308 295 285 268 263 258 252 247 242 238 236 233 228 226 223 220 224 221 223 224 224 224 228 216 212 212 206 212 214 209 219 230 184 186 169 159 127 119 72 52 23
333 334 333 327 320 300 284 272 262 254 249 245 239 236 231 228 226 226 226 225 224 224 221 224 222 216 214 211 209 210 207 204 206 201 198 115 117 142 133 97 107 15 293
343 335 328 323 320 314 302 289 282 269 261 251 243 241 238 234 230 228 227 229 228 225 223 221 218 217 214 208 205 205 199 197 196 199 160 155 152 168 109 157 118 155 295
341 340 331 320 317 314 306 298 292 288 278 269 259 249 243 239 234 230 225 227 229 227 222 217 217 213 207 202 196 198 188 196 163 176 157 150 158 159 184 162 138 155 183
333 331 323 317 317 315 311 307 303 292 284 278 270 260 252 241 234 220 217 224 226 224 218 214 213 198 198 194 194 187 188 182 188 171 169 185 181 170 151 156 130 148 207
323 323 319 313 310 309 305 304 299 293 290 280 275 268 260 253 234 217 210 224 223 220 215 206 193 191 179 183 175 169 177 179 174 180 179 196 167 168 147 146 150 150 164
319 313 312 310 308 310 304 299 294 292 285 283 279 269 265 260 240 218 208 219 227 223 213 197 192 178 177 162 154 159 171 177 172 179 192 181 183 166 168 166 157 122 94
313 312 315 312 306 304 304 300 295 291 287 282 272 269 261 263 249 218 205 221 225 213 200 193 191 181 173 164 162 166 165 167 163 165 160 155 157 160 147 136 147 145 132
309 310 308 307 300 298 297 296 294 285 281 281 277 264 259 259 252 223 210 223 222 211 175 186 181 179 168 168 164 164 175 178 152 134 141 140 147 156 165 183 159 158 131
312 307 304 301 298 295 293 288 290 289 284 278 270 270 261 251 256 221 215 224 219 212 200 180 177 166 168 173 169 176 182 145 160 146 138 130 125 154 151 165 151 152 125
307 303 301 297 294 293 290 290 286 283 279 278 274 273 263 254 241 236 218 219 217 197 202 187 178 166 168 170 166 165 156 150 154 160 155 162 152 169 137 133 121 110 91
303 298 303 303 292 286 291 288 288 280 272 272 270 269 267 259 235 220 217 218 220 202 194 185 166 170 171 173 171 168 159 160 163 171 175 169 160 148 131 125 110 98 88
301 297 295 296 296 293 284 280 278 275 272 268 267 264 266 259 238 219 211 206 202 168 133 142 157 163 168 169 161 169 173 174 174 175 171 147 137 145 159 153 136 131 123
302 297 294 288 293 292 284 283 278 275 272 270 264 264 260 256 249 221 205 198 190 169 142 140 161 162 174 171 175 173 173 171 174 167 160 160 154 162 163 157 149 147 130
304 305 308 302 293 287 286 286 267 273 277 265 258 253 260 255 253 216 214 207 189 168 159 175 179 180 182 178 178 175 178 177 174 165 167 168 165 172 160 158 156 167 161
304 300 298 295 290 285 282 280 286 281 271 266 259 252 253 254 246 225 206 199 189 172 184 191 188 184 181 179 177 181 182 183 167 166 170 172 169 169 161 163 162 160 153
300 296 290 286 284 283 282 280 278 280 284 281 262 248 248 249 240 214 195 185 189 197 198 191 192 185 179 176 176 181 175 174 174 173 168 173 177 169 163 167 162 159 157
306 300 296 292 288 284 284 278 274 272 272 273 274 259 237 240 228 202 189 192 200 204 206 194 182 182 182 179 175 179 175 178 176 171 174 173 179 166 166 162 159 156 148
309 303 300 294 292 287 284 280 278 271 271 269 265 261 242 212 214 199 201 203 210 209 204 196 186 180 179 177 173 178 168 175 178 174 176 173 176 170 160 157 158 163 162
315 307 310 306 305 302 297 288 286 277 273 266 262 253 222 208 215 209 206 209 216 210 204 197 186 177 175 173 174 175 176 175 180 173 176 170 169 165 159 155 152 148 142
313 314 316 315 313 314 313 304 305 290 276 267 263 249 227 216 220 214 215 217 212 208 199 188 183 183 182 181 182 179 175 176 175 171 171 168 161 153 150 150 147 144 146
318 320 320 321 323 325 323 322 322 333 309 272 262 247 217 221 221 221 221 215 214 204 199 193 188 185 182 180 177 184 177 182 182 169 163 162 158 152 157 154 150 151 157
322 324 324 324 331 331 329 330 332 333 336 346 326 262 227 223 225 226 219 208 200 192 183 184 186 178 177 176 178 181 184 177 173 169 158 156 153 151 151 148 153 155 149
325 327 329 328 335 336 333 336 336 337 339 344 346 340 343 304 246 232 227 206 199 192 188 185 182 180 178 174 171 169 159 152 153 149 146 150 153 152 151 148 147 142 139
326 329 330 332 334 338 337 339 339 341 343 344 347 348 342 342 352 349 342 220 187 180 178 182 178 175 168 162 148 137 137 140 140 140 134 142 147 141 139 145 140 141 143